Regional Weather Roundup
Issued by NWS Kansas City/Pleasant Hill, MO

Home | Current Version | Previous Version | Text Only | Print | Product List | Glossary On
Versions: 1 2 3 4 5 6 7 8 9 10 11 12 13 14 15 16 17 18 19 20 21 22 23 24 25 26 27 28 29 30 31 32 33 34 35 36 37 38 39 40 41 42 43 44 45 46 47 48 49 50
000
ASUS43 KEAX 121710
RWREAX

WEATHER ROUNDUP FOR EASTERN KANSAS AND NORTHWEST MISSOURI
NATIONAL WEATHER SERVICE KANSAS CITY/PLEASANT HILL MO
1100 AM CST FRI FEB 12 2016

KSZ040-057-103>105-MOZ028-029-037-043-121800-
...KANSAS CITY METROPOLITAN AREA...

CITY           SKY/WX    TMP DP  RH WIND       PRES   REMARKS
K.C. INTL      PTSUNNY   34  23  64 N18G25    30.41R WCI  23
K.C. DOWNTOWN  PTSUNNY   36  23  59 NW12      30.42R WCI  28
LEES SUMMIT    CLOUDY    34  22  61 N16       30.41R WCI  24
OLATHE - IXD   CLOUDY    34  24  67 NW14      30.43R WCI  25
OLATHE - OJC   CLOUDY    33  22  63 N16G24    30.42R WCI  23
LAWRENCE       CLOUDY    35  24  64 NW14      30.44R WCI  26

$$

MOZ001>008-011>017-020>025-030>033-038>040-044>046-053-054-121800-
...NORTHERN AND CENTRAL MISSOURI...

CITY           SKY/WX    TMP DP  RH WIND       PRES   REMARKS
ST. JOSEPH     MOSUNNY   30  18  60 N21       30.45R WCI  17
MOSBY            N/A     32  23  69 N16G22    30.42R WCI  21
WARRENSBURG    MOSUNNY   34  23  64 W14       30.41R WCI  24
WHITEMAN AFB   SUNNY     35  22  57 NW17      30.38  WCI  25
CLINTON          N/A     37  25  60 N13       30.40R WCI  29
SEDALIA        SUNNY     35  21  56 N16       30.38R WCI  25
WARSAW         NOT AVBL
CHILLICOTHE      N/A     28  17  63 NW10G18   30.43R WCI  19
KIRKSVILLE     CLOUDY    24  14  65 NW14      30.37R WCI  12

$$

MOZ041-047>049-056>058-063>065-088>090-097-121800-
...EASTERN AND SOUTHERN MISSOURI...

CITY           SKY/WX    TMP DP  RH WIND       PRES   REMARKS
ST. LOUIS INTL CLOUDY    31  23  72 NW10      30.31R WCI  22
SPIRIT OF STL  CLOUDY    31  24  75 NW9       30.31R WCI  23
COLUMBIA       MOSUNNY   32  24  72 NW16      30.33R WCI  21
JEFFERSON CITY PTSUNNY   33  23  66 W13       30.35R WCI  24
ROLLA          PTSUNNY   33  24  69 NW15      30.29R WCI  23
OSAGE BEACH    MOSUNNY   37  21  52 N8        30.34S WCI  31
SPRINGFIELD    SUNNY     40  24  53 N18       30.32R WCI  31
BRANSON        SUNNY     43  25  49 NW14G20   30.30R
JOPLIN         SUNNY     39  25  57 N13G23    30.38R WCI  31
WEST PLAINS    SUNNY     43  24  47 NW14      30.27R

$$

IAZ060-094-KSZ022-034>040-054-083-096-NEZ052-066-093-121800-
...KANSAS...SOUTHEAST NEBRASKA AND IOWA...

CITY           SKY/WX    TMP DP  RH WIND       PRES   REMARKS
TOPEKA         CLOUDY    35  23  61 N13       30.46R WCI  26
MANHATTAN      CLOUDY    32  24  72 N12       30.48R WCI  23
EMPORIA        PTSUNNY   35  26  69 N15G21    30.42R WCI  25
CHANUTE        SUNNY     38  25  59 N17G26    30.42R WCI  28
WICHITA        PTSUNNY   36  27  69 NE18G25   30.41R WCI  26
OMAHA          CLOUDY    24  15  68 N22       30.49R WCI   9
LINCOLN        CLOUDY    27  20  75 N17       30.50R WCI  14
FALLS CITY     CLOUDY    29  18  63 N16       30.46R WCI  17
LAMONI         MOSUNNY   25  13  60 N18G30    30.40R WCI  11
DES MOINES     MOSUNNY   19   7  59 N21G32    30.42R WCI   3

$$




USA.gov is the U.S. government's official web portal to all federal, state and local government web resources and services.